Flag for Germany Weather past 2 weeks in Salzgitter, Lower Saxony, Germany

Now
39 °F

Light rain. Partly cloudy.


Feels Like: 32 °F
Forecast: 36 / 40 °F
Wind: 13 mph from West

Location: Braunschweig

Current Time: Jan 27, 2015 at 12:38:05 AM

Latest Report: Jan 26, 2015 at 10:20 PM


Visibility: N/A

Pressure: 29.89 "Hg

Humidity: 100%

Dew point: 39 °F

Location of SalzgitterLocation

Historic Weather in Salzgitter — Graph

°F

Salzgitter temperature yesterday

Maximum temperature yesterday: 41 °F (at 9:20 PM)
Minimum temperature yesterday: 36 °F (at 6:50 AM)
Average temperature yesterday: 38 °F

Past Weeks' High & Low Weather Summary

 TemperatureHumidityPressure
High52 °F (Jan 13, 12:50 PM)100% (Jan 17, 8:50 AM)30.30 "Hg (Jan 17, 8:50 AM)
Low23 °F (Jan 21, 6:50 AM)57% (Jan 16, 12:50 PM)29.47 "Hg (Jan 15, 5:20 PM)
Average37 °F85%29.92 "Hg
* Reported Jan 12 6:50 AM — Jan 26 10:20 PM, Salzgitter, Weather by CustomWeather, © 2014

Note: Actual official high and low records may vary slightly from our data, if they occured in-between our weather recording intervals... More about our weather records

Advertising

Salzgitter weather history for previous 24 hours

 ConditionsComfort  
Time TempWeatherWind HumidityBarometerVisibility
10:20 PM
Jan 26
39 °FLight rain. Partly cloudy.13 mph100%29.89 "HgN/A
9:50 PM41 °FMostly cloudy.10 mph100%29.92 "HgN/A
9:20 PM41 °FLight rain. Mostly cloudy.10 mph100%29.92 "HgN/A
8:50 PM39 °FLight rain. Mostly cloudy.9 mph100%29.92 "HgN/A
8:20 PM39 °FLight rain. Low clouds.9 mph100%29.89 "HgN/A
7:50 PM37 °FLight rain. Mostly cloudy.8 mph100%29.92 "Hg6 mi
7:20 PM37 °FLight rain. Low clouds.13 mph100%29.89 "Hg4 mi
6:50 PM37 °FLight rain. Low clouds.13 mph100%29.92 "Hg3 mi
6:20 PM37 °FLight rain. Low clouds.14 mph100%29.92 "HgN/A
5:50 PM37 °FPartly cloudy.14 mph100%29.92 "HgN/A
5:20 PM37 °FMostly cloudy.15 mph100%29.92 "HgN/A
4:50 PM37 °FPartly sunny.15 mph100%29.92 "HgN/A
4:20 PM37 °FLight rain. More clouds than sun.15 mph100%29.95 "HgN/A
3:50 PM37 °FLight rain. Low clouds.13 mph100%29.95 "HgN/A
3:20 PM39 °FLight rain. Mostly cloudy.14 mph93%29.98 "HgN/A
2:50 PM37 °FLight rain. Mostly cloudy.14 mph100%29.98 "HgN/A
2:20 PM37 °FLight rain. Broken clouds.14 mph100%30.01 "HgN/A
1:50 PM39 °FLight rain. Broken clouds.10 mph93%30.01 "HgN/A
1:20 PM39 °FLight rain. Partly sunny.13 mph100%30.04 "HgN/A
12:50 PM37 °FPartly sunny.12 mph100%30.07 "Hg5 mi
12:20 PM39 °FLight rain. Partly sunny.13 mph93%30.07 "Hg5 mi
11:50 AM39 °FBroken clouds.14 mph93%30.09 "HgN/A
11:20 AM39 °FPartly sunny.13 mph93%30.09 "Hg5 mi
10:50 AM39 °FPartly sunny.12 mph87%30.12 "HgN/A
10:20 AM39 °FPartly sunny.10 mph93%30.12 "HgN/A
9:50 AM37 °FPartly sunny.10 mph93%30.15 "HgN/A
9:20 AM37 °FPartly sunny.8 mph100%30.15 "HgN/A
8:50 AM37 °FPartly sunny.8 mph100%30.15 "Hg5 mi
8:20 AM37 °FOvercast.7 mph100%30.15 "HgN/A
7:50 AM36 °FOvercast.6 mph100%30.18 "Hg4 mi
7:20 AM36 °FPassing clouds.9 mph100%30.18 "Hg5 mi
6:50 AM36 °FPassing clouds.9 mph100%30.18 "Hg5 mi
Weather by CustomWeather, © 2014

See weather overviewHow to use our weather pages